TimeEDT,TemperatureF,Dew PointF,Humidity,Sea Level PressureIn,VisibilityMPH,Wind Direction,Wind SpeedMPH,Gust SpeedMPH,PrecipitationIn,Events,Conditions,WindDirDegrees,DateUTC
12:06 AM,57.2,57.2,100,29.56,6.0,SSE,5.8,-,0.00,,Light Drizzle,160,2013-04-12 04:06:00
12:56 AM,57.0,57.0,100,29.53,10.0,SSE,8.1,-,0.00,,Overcast,150,2013-04-12 04:56:00
1:56 AM,55.9,55.9,100,29.51,6.0,South,5.8,-,0.01,Rain,Light Rain,170,2013-04-12 05:56:00
2:02 AM,55.4,55.4,100,29.52,5.0,South,6.9,-,0.00,Rain,Light Rain,180,2013-04-12 06:02:00
2:15 AM,55.4,55.4,100,29.52,5.0,South,9.2,-,0.00,Rain,Light Rain,180,2013-04-12 06:15:00
2:32 AM,53.6,53.6,100,29.54,2.5,WNW,21.9,29.9,0.06,Rain,Heavy Rain,300,2013-04-12 06:32:00
2:36 AM,53.6,53.6,100,29.54,3.0,WNW,19.6,29.9,0.07,Rain,Light Rain,290,2013-04-12 06:36:00
2:43 AM,53.6,53.6,100,29.55,5.0,WNW,19.6,28.8,0.07,Rain,Rain,290,2013-04-12 06:43:00
2:51 AM,51.8,51.8,100,29.55,4.0,WNW,20.7,28.8,0.09,Rain,Rain,290,2013-04-12 06:51:00
2:56 AM,52.0,52.0,100,29.54,4.0,WNW,21.9,-,0.10,Rain,Rain,290,2013-04-12 06:56:00
3:13 AM,51.8,51.8,100,29.53,7.0,WNW,16.1,-,0.02,Rain,Light Rain,290,2013-04-12 07:13:00
3:33 AM,51.8,50.0,94,29.54,7.0,West,15.0,-,0.03,Rain,Light Rain,280,2013-04-12 07:33:00
3:56 AM,50.0,48.9,96,29.53,10.0,WNW,18.4,-,0.04,Rain,Light Rain,300,2013-04-12 07:56:00
4:18 AM,50.0,48.2,94,29.55,10.0,WNW,12.7,-,0.00,,Overcast,290,2013-04-12 08:18:00
4:44 AM,48.2,46.4,93,29.57,10.0,WNW,18.4,25.3,0.00,Rain,Light Rain,300,2013-04-12 08:44:00
4:56 AM,46.9,45.0,93,29.58,10.0,WNW,16.1,25.3,0.00,Rain,Light Rain,300,2013-04-12 08:56:00
5:19 AM,44.6,42.8,93,29.59,10.0,WNW,16.1,-,0.00,,Overcast,290,2013-04-12 09:19:00
5:56 AM,43.0,42.1,97,29.61,9.0,West,19.6,25.3,0.00,,Overcast,280,2013-04-12 09:56:00
6:56 AM,42.1,39.9,92,29.65,8.0,West,18.4,26.5,N/A,,Overcast,270,2013-04-12 10:56:00
7:15 AM,39.2,39.2,100,29.66,6.0,West,16.1,-,0.00,Rain,Light Rain,270,2013-04-12 11:15:00
7:38 AM,39.2,39.2,100,29.68,5.0,West,13.8,23.0,0.00,,Overcast,270,2013-04-12 11:38:00
7:56 AM,39.9,37.9,93,29.68,8.0,West,17.3,-,0.00,,Overcast,270,2013-04-12 11:56:00
8:14 AM,39.2,35.6,87,29.69,10.0,West,16.1,-,N/A,,Overcast,270,2013-04-12 12:14:00
8:56 AM,39.0,33.1,79,29.72,10.0,WSW,17.3,-,N/A,,Overcast,250,2013-04-12 12:56:00
9:56 AM,39.0,33.1,79,29.73,10.0,WSW,16.1,-,N/A,,Overcast,250,2013-04-12 13:56:00
10:56 AM,39.0,34.0,82,29.74,10.0,WSW,15.0,24.2,N/A,,Overcast,250,2013-04-12 14:56:00
11:56 AM,37.9,33.1,83,29.76,10.0,WSW,18.4,-,0.00,,Overcast,240,2013-04-12 15:56:00
12:11 PM,41.0,33.8,76,29.75,10.0,WSW,17.3,26.5,N/A,,Overcast,240,2013-04-12 16:11:00
12:56 PM,41.0,30.9,67,29.77,10.0,WSW,23.0,31.1,N/A,,Overcast,250,2013-04-12 16:56:00
1:56 PM,44.1,33.1,65,29.77,10.0,West,17.3,-,N/A,,Overcast,260,2013-04-12 17:56:00
2:56 PM,44.1,33.1,65,29.78,10.0,WSW,19.6,-,N/A,,Overcast,250,2013-04-12 18:56:00
3:56 PM,45.0,34.0,65,29.79,10.0,WSW,20.7,-,N/A,,Overcast,240,2013-04-12 19:56:00
4:56 PM,44.1,33.1,65,29.81,10.0,West,18.4,-,N/A,,Overcast,260,2013-04-12 20:56:00
5:56 PM,44.1,34.0,68,29.84,10.0,West,19.6,24.2,N/A,,Overcast,260,2013-04-12 21:56:00
6:56 PM,43.0,32.0,65,29.87,10.0,WSW,13.8,-,N/A,,Overcast,250,2013-04-12 22:56:00
7:56 PM,42.1,32.0,67,29.88,10.0,West,17.3,-,N/A,,Overcast,260,2013-04-12 23:56:00
8:56 PM,42.1,33.1,70,29.89,10.0,WSW,10.4,-,N/A,,Overcast,250,2013-04-13 00:56:00
9:56 PM,42.1,33.1,70,29.91,10.0,West,12.7,-,N/A,,Overcast,260,2013-04-13 01:56:00
10:56 PM,42.1,34.0,73,29.93,10.0,WSW,10.4,-,N/A,,Overcast,240,2013-04-13 02:56:00
11:56 PM,41.0,35.1,79,29.94,10.0,West,11.5,-,N/A,,Overcast,270,2013-04-13 03:56:00